This is the latest recevied weather packets stored in our database for station/object KK6LVQ-13. If no packets are shown the sender has not sent any weather packets the latest 10 day(s).
| Time | Temp. | Humidity | Pressure | Rain* | Wind** | Luminosity | Snow |
|---|---|---|---|---|---|---|---|
| 1777777416 | 11.11° C | 88% | 1016.6 hPa | 0 mm | - | 1 W/m² | - |
| 1777777113 | 11.67° C | 88% | 1016.3 hPa | 0 mm | - | 1 W/m² | - |
| 1777776811 | 11.67° C | 88% | 1016.5 hPa | 0 mm | - | 2 W/m² | - |
| 1777776508 | 11.67° C | 88% | 1016.3 hPa | 0 mm | - | 3 W/m² | - |
| 1777776204 | 11.67° C | 88% | 1016.4 hPa | 0 mm | - | 5 W/m² | - |
| 1777775901 | 11.67° C | 88% | 1016.3 hPa | 0 mm | - | 8 W/m² | - |
| 1777775598 | 11.67° C | 88% | 1016.2 hPa | 0 mm | - | 11 W/m² | - |
| 1777775294 | 11.67° C | 88% | 1016.2 hPa | 0 mm | - | 14 W/m² | - |
| 1777774989 | 11.67° C | 88% | 1016.1 hPa | 0 mm | - | 21 W/m² | - |
| 1777774686 | 11.67° C | 88% | 1016.1 hPa | 0 mm | - | 29 W/m² | - |
| 1777774382 | 12.22° C | 88% | 1016.1 hPa | 0 mm | - | 34 W/m² | - |
| 1777774080 | 12.22° C | 87% | 1016.1 hPa | 0 mm | - | 39 W/m² | - |
| 1777773777 | 12.22° C | 87% | 1016.1 hPa | 0 mm | - | 48 W/m² | - |
| 1777773473 | 12.22° C | 87% | 1016.2 hPa | 0 mm | - | 56 W/m² | - |
| 1777773170 | 12.78° C | 86% | 1016.1 hPa | 0 mm | - | 65 W/m² | - |
| 1777772866 | 12.78° C | 86% | 1016.4 hPa | 0 mm | - | 75 W/m² | - |
| 1777772564 | 12.78° C | 85% | 1016.2 hPa | 0 mm | - | 80 W/m² | - |
| 1777772261 | 12.78° C | 85% | 1016.4 hPa | 0 mm | - | 91 W/m² | - |
| 1777771959 | 12.78° C | 85% | 1016.3 hPa | 0 mm | - | 97 W/m² | - |
| 1777771656 | 12.78° C | 85% | 1016.3 hPa | 0 mm | - | 114 W/m² | - |
| 1777771353 | 13.33° C | 85% | 1016.4 hPa | 0 mm | - | 109 W/m² | - |
| 1777771049 | 13.33° C | 84% | 1016.4 hPa | 0 mm | - | 120 W/m² | - |
| 1777770747 | 13.33° C | 84% | 1016.3 hPa | 0 mm | - | 131 W/m² | - |
| 1777770442 | 13.89° C | 84% | 1016.3 hPa | 0 mm | - | 140 W/m² | - |
| 1777770140 | 13.89° C | 83% | 1016.4 hPa | 0 mm | - | 158 W/m² | - |
* Rain latest hour (hover to see other rain measurements)
** Current wind speed in m/s (hover to see current wind gust speed)